Rogers, AR

10:07 AM CDT on March 24, 2017 (GMT -0500)
Rogers Municipal-Carter

Weather History for KROG - October, 2013

Change the Weather History Date:

Wednesday, October 9, 2013

  Actual Average Record
Temperature  
Mean Temperature 60 °F -  
Max Temperature 73 °F 69 °F 89 °F (2007)
Min Temperature 48 °F 48 °F 26 °F (2000)
Degree Days  
Heating Degree Days 4    
Growing Degree Days 10 (Base 50)    
Moisture  
Dew Point 47 °F    
Average Humidity 74    
Maximum Humidity 93    
Minimum Humidity 37    
Precipitation  
Precipitation 0.00 in - - ()
Sea Level Pressure  
Sea Level Pressure 30.10 in    
Wind  
Wind Speed 6 mph (ESE)    
Max Wind Speed 8 mph    
Max Gust Speed -    
Visibility 4 miles    
Events Fog , Rain    
Averages and records for this station are not official NWS values.
T = Trace of Precipitation, MM = Missing Value Source: NWS Daily Summary

Daily Weather History Graph

Daily Weather History Graph

Search for Another Location

Airport or City:

Trip Planner

Search our weather history database for the weather conditions in past years. The results will help you decide how hot, cold, wet, or windy it might be!

Date:

Astronomy

Oct. 09, 2013 Rise Set
Actual Time 7:18 AM CDT 6:48 PM CDT
Civil Twilight 6:52 AM CDT 7:13 PM CDT
Nautical Twilight 6:22 AM CDT 7:43 PM CDT
Astronomical Twilight 5:53 AM CDT 8:13 PM CDT
Moon 12:07 PM CDT (10/9) 10:30 PM CDT (10/9)
Length of Visible Light 12h 21m
Length of Day
11h 29m
Waxing Crescent, 25% of the Moon is Illuminated
Oct 9
Waxing Crescent
Oct 11
First Quarter
Oct 18
Full
Oct 26
Last Quarter
Nov 3
New

Hourly Weather History & Observations

Time (CDT) Temp. Dew Point Humidity Pressure Visibility Wind Dir Wind Speed Gust Speed Precip Events Conditions
12:13 AM 55.4 °F 46.4 °F 72% 30.10 in 2.0 mi ESE 8.1 mph - N/A   Haze
12:20 AM 55.4 °F 46.4 °F 72% 30.10 in 1.8 mi ESE 8.1 mph - N/A   Haze
12:34 AM 55.4 °F 46.4 °F 72% 30.10 in 2.0 mi SE 8.1 mph - N/A   Haze
12:45 AM 55.4 °F 46.4 °F 72% 30.09 in 1.8 mi ESE 8.1 mph - N/A   Haze
12:57 AM 55.0 °F 46.0 °F 72% 30.08 in 1.2 mi ESE 6.9 mph - N/A   Haze
1:02 AM 55.4 °F 46.4 °F 72% 30.09 in 1.0 mi ESE 6.9 mph - N/A   Haze
1:05 AM 55.4 °F 46.4 °F 72% 30.09 in 0.8 mi ESE 6.9 mph - N/A   Haze
1:18 AM 53.6 °F 46.4 °F 77% 30.09 in 1.0 mi ESE 5.8 mph - N/A   Haze
1:21 AM 53.6 °F 46.4 °F 77% 30.09 in 1.5 mi ESE 4.6 mph - N/A   Haze
1:43 AM 53.6 °F 46.4 °F 77% 30.10 in 2.5 mi ESE 5.8 mph - N/A   Haze
1:47 AM 53.6 °F 46.4 °F 77% 30.10 in 1.8 mi ESE 5.8 mph - N/A   Haze
1:57 AM 54.0 °F 46.0 °F 75% 30.08 in 1.5 mi ESE 5.8 mph - N/A   Haze
2:06 AM 53.6 °F 46.4 °F 77% 30.10 in 2.0 mi ESE 4.6 mph - N/A   Haze
2:11 AM 53.6 °F 46.4 °F 77% 30.10 in 3.0 mi SE 4.6 mph - N/A   Haze
2:24 AM 53.6 °F 46.4 °F 77% 30.10 in 2.5 mi ESE 4.6 mph - N/A   Haze
2:28 AM 53.6 °F 46.4 °F 77% 30.10 in 1.5 mi ESE 4.6 mph - N/A   Haze
2:34 AM 53.6 °F 46.4 °F 77% 30.10 in 1.0 mi ESE 5.8 mph - N/A   Haze
2:43 AM 53.6 °F 46.4 °F 77% 30.10 in 1.2 mi ESE 6.9 mph - N/A   Haze
2:57 AM 53.1 °F 46.9 °F 80% 30.08 in 1.2 mi ESE 5.8 mph - N/A   Haze
3:27 AM 51.8 °F 46.4 °F 82% 30.10 in 1.0 mi East 5.8 mph - 0.00 in Rain Light Rain
3:30 AM 51.8 °F 46.4 °F 82% 30.10 in 0.8 mi East 5.8 mph - 0.00 in Rain Light Rain
3:48 AM 51.8 °F 46.4 °F 82% 30.09 in 1.0 mi ESE 5.8 mph - 0.00 in Rain Light Rain
3:57 AM 51.8 °F 46.4 °F 82% 30.09 in 0.8 mi ESE 6.9 mph - 0.00 in Rain Light Rain
3:59 AM 52.0 °F 46.9 °F 83% 30.07 in 0.8 mi ESE 5.8 mph - 0.00 in Rain Light Rain
4:24 AM 51.8 °F 46.4 °F 82% 30.09 in 1.0 mi East 6.9 mph - 0.00 in Rain Light Rain
4:27 AM 51.8 °F 46.4 °F 82% 30.09 in 1.2 mi ESE 6.9 mph - 0.00 in Rain Light Rain
4:47 AM 51.8 °F 46.4 °F 82% 30.09 in 1.0 mi ESE 5.8 mph - 0.00 in Rain Light Rain
4:57 AM 51.8 °F 46.4 °F 82% 30.09 in 1.2 mi ESE 5.8 mph - 0.00 in Rain Light Rain
4:59 AM 51.8 °F 46.4 °F 82% 30.09 in 1.0 mi ESE 4.6 mph - 0.00 in Rain Light Rain
5:01 AM 51.1 °F 46.9 °F 86% 30.08 in 1.0 mi ESE 4.6 mph - 0.00 in Rain Light Rain
5:05 AM 51.8 °F 46.4 °F 82% 30.10 in 0.8 mi East 4.6 mph - 0.00 in Rain Light Rain
5:19 AM 50.0 °F 46.4 °F 87% 30.10 in 1.2 mi Calm Calm - 0.00 in Rain Light Rain
5:23 AM 48.2 °F 46.4 °F 93% 30.10 in 3.0 mi Calm Calm - 0.00 in Rain Light Rain
5:34 AM 48.2 °F 44.6 °F 87% 30.10 in 1.8 mi Calm Calm - 0.00 in Rain Light Rain
5:42 AM 48.2 °F 46.4 °F 93% 30.10 in 3.0 mi Calm Calm - 0.00 in Rain Light Rain
5:53 AM 48.2 °F 44.6 °F 87% 30.10 in 1.0 mi East 3.5 mph - 0.00 in Rain Light Rain
5:57 AM 48.0 °F 46.0 °F 93% 30.09 in 0.5 mi East 3.5 mph - 0.00 in Fog , Rain Light Rain
6:01 AM 48.2 °F 46.4 °F 93% 30.10 in 0.2 mi East 3.5 mph - 0.00 in Fog , Rain Light Rain
6:15 AM 48.2 °F 44.6 °F 87% 30.10 in 0.5 mi Calm Calm - 0.00 in Fog , Rain Light Rain
6:17 AM 48.2 °F 44.6 °F 87% 30.10 in 1.0 mi Calm Calm - 0.00 in Rain Light Rain
6:20 AM 48.2 °F 46.4 °F 93% 30.10 in 3.0 mi Calm Calm - 0.00 in Rain Light Rain
6:57 AM 48.0 °F 45.0 °F 89% 30.10 in 10.0 mi East 4.6 mph - 0.00 in   Clear
7:57 AM 48.0 °F 46.0 °F 93% 30.12 in 10.0 mi Calm Calm - N/A   Clear
8:54 AM 55.4 °F 50.0 °F 82% 30.13 in 2.5 mi East 6.9 mph - N/A   Haze
8:57 AM 55.9 °F 50.0 °F 80% 30.12 in 2.0 mi ESE 5.8 mph - N/A   Haze
9:15 AM 57.2 °F 48.2 °F 72% 30.14 in 3.0 mi SE 5.8 mph - N/A   Haze
9:57 AM 62.1 °F 46.9 °F 58% 30.14 in 10.0 mi South 5.8 mph - N/A   Clear
10:57 AM 66.0 °F 48.0 °F 52% 30.14 in 10.0 mi SW 4.6 mph - N/A   Clear
11:21 AM 66.2 °F 46.4 °F 49% 30.15 in 1.2 mi SW 4.6 mph - N/A   Haze
11:26 AM 66.2 °F 46.4 °F 49% 30.15 in 1.2 mi SSW 4.6 mph - N/A   Haze
11:31 AM 68.0 °F 48.2 °F 49% 30.15 in 10.0 mi SE 3.5 mph - N/A   Partly Cloudy
11:57 AM 68.0 °F 46.9 °F 47% 30.13 in 10.0 mi SSW 5.8 mph - N/A   Clear
12:57 PM 71.1 °F 46.9 °F 42% 30.11 in 10.0 mi SSW 5.8 mph - N/A   Clear
1:57 PM 72.0 °F 46.0 °F 40% 30.08 in 10.0 mi Variable 5.8 mph - N/A   Clear
2:57 PM 73.0 °F 46.0 °F 38% 30.06 in 10.0 mi SE 5.8 mph - N/A   Clear
3:57 PM 73.9 °F 46.0 °F 37% 30.06 in 10.0 mi East 6.9 mph - N/A   Clear
4:57 PM 73.0 °F 46.0 °F 38% 30.06 in 10.0 mi East 5.8 mph - N/A   Clear
5:57 PM 72.0 °F 48.0 °F 43% 30.06 in 10.0 mi ENE 3.5 mph - N/A   Clear
6:57 PM 66.9 °F 53.1 °F 61% 30.06 in 10.0 mi Calm Calm - N/A   Clear
7:57 PM 62.1 °F 51.1 °F 67% 30.07 in 10.0 mi ESE 4.6 mph - N/A   Clear
8:57 PM 61.0 °F 50.0 °F 67% 30.07 in 10.0 mi SSE 6.9 mph - N/A   Clear
9:57 PM 59.0 °F 51.1 °F 75% 30.07 in 10.0 mi ESE 5.8 mph - N/A   Clear
10:57 PM 57.9 °F 52.0 °F 81% 30.07 in 10.0 mi ESE 5.8 mph - N/A   Clear
11:57 PM 57.0 °F 51.1 °F 81% 30.07 in 10.0 mi ESE 6.9 mph - N/A   Clear